星链-3612 (STARLINK-3612 )

导读

STARLINK-3612是美国SpaceX公司星链(Starlink)星座中的一颗卫星,于2022年2月25日发射升空。星链项目旨在通过在低地球轨道部署大规模卫星星座,为全球尤其是基础设施匮乏地区提供高速、低延迟的宽带互联网接入服务,该卫星是SpaceX实现全球覆盖目标进程中的组成部分。

Basic Information
目录编号:
51770
目录名称:
STARLINK-3612
国际标识:
2022-017C
轨道中心:
EARTH
卫星名称:
星链-3612
卫星全名:
星链-3612 (STARLINK-3612 )
卫星状态:
在轨 (已飞行1573 天)
发射日期:
2022-02-25 UTC
国别 :
美国 (US)
星等 :
--
Orbit Information
数据来源 国际轨道数据 AOE轨道数据
星历时间 2026-06-17T18:34:58+0800
8小时前
查看轨道信息
2026-06-13T07:00:00+0800
4天前
查看轨道信息
半长轴 6917.897km 6917.834km
偏心率 0.0001289 0.0001319
轨道倾角 53.160° 53.158°
近地点辐角 92.252° 69.344°
升交点赤经 251.220° 271.373°
平近点角 267.862° 48.770°
近地点 538.868km 538.784km
远地点 540.652km 540.61km
周期 95.438分钟 95.437分钟
每日圈数 15.088346 15.088555
Detailed Information
固有亮度:
5
最大亮度:
2.5
卫星平台:
Starlink v1.5
覆盖范围:
全球
运营商:
太空探索技术公司
运营商所在国:
美国
制造商(研发单位):
太空探索技术公司
制造商所在国:
美国
使用方式:
暂无
Satellite Introduction
星链(Starlink)计划是由太空探索技术公司(SpaceX)提出的一个巨型低轨卫星互联网星座项目,计划在2019年至2024年间在太空搭建由约1.2万颗卫星组成的“星链”网络,其中1584颗将部署在地球上空550千米处的近地轨道,并从2020年开始工作。该卫星仍在工作。
2D Orbit Map
3D Orbit Map
Orbit Altitude Analysis Chart
Orbit Inclination Analysis Chart
Orbit Comprehensive Analysis Chart
View Comprehensive Chart